QPF
0.00 0.00 0.00 0.00 0.00 0.00 0.00 0.00 0.00 0.00 0.00 0.00 0.00 0.00 0.00 0.00 0.00 0.00 0.00 0.00 0.00 0.00 0.00 0.00 0.00 0.00 0.00 0.00 0.01 0.01 0.03 0.06 0.08 0.09 0.10 0.11 0.13 0.16 0.18 0.17 0.18 0.20 0.20
0.00 0.00 0.00 0.00 0.00 0.00 0.00 0.00 0.00 0.00 0.00 0.00 0.00 0.00 0.00 0.00 0.00 0.00 0.00 0.00 0.00 0.00 0.00 0.00 0.00 0.00 0.00 0.00 0.00 0.01 0.03 0.05 0.07 0.09 0.10 0.10 0.11 0.11 0.12 0.12 0.13 0.12 0.13
0.00 0.00 0.00 0.00 0.00 0.00 0.00 0.00 0.00 0.00 0.00 0.00 0.00 0.00 0.00 0.00 0.00 0.00 0.00 0.00 0.00 0.00 0.00 0.00 0.00 0.00 0.00 0.00 0.01 0.01 0.03 0.04 0.05 0.06 0.07 0.07 0.07 0.07 0.08 0.08 0.08 0.08 0.08
0.00 0.00 0.00 0.00 0.00 0.00 0.00 0.00 0.00 0.00 0.00 0.00 0.00 0.00 0.00 0.00 0.00 0.00 0.00 0.00 0.00 0.00 0.00 0.00 0.00 0.00 0.00 0.00 0.01 0.01 0.01 0.02 0.03 0.03 0.03 0.03 0.03 0.04 0.05 0.05 0.04 0.04 0.04
0.00 0.00 0.00 0.00 0.00 0.00 0.00 0.00 0.00 0.00 0.00 0.00 0.00 0.00 0.00 0.00 0.00 0.00 0.00 0.00 0.00 0.00 0.00 0.00 0.00 0.00 0.00 0.00 0.00 0.00 0.01 0.01 0.01 0.01 0.01 0.02 0.02 0.03 0.03 0.03 0.03 0.03 0.02
0.00 0.00 0.00 0.00 0.00 0.00 0.00 0.00 0.00 0.00 0.00 0.00 0.00 0.00 0.00 0.00 0.00 0.00 0.00 0.00 0.00 0.00 0.00 0.00 0.00 0.00 0.00 0.00 0.00 0.00 0.00 0.00 0.01 0.01 0.01 0.01 0.01 0.01 0.02 0.01 0.01 0.01 0.01
0.00 0.00 0.00 0.00 0.00 0.00 0.00 0.00 0.00 0.00 0.00 0.00 0.00 0.00 0.00 0.00 0.00 0.00 0.00 0.00 0.00 0.00 0.00 0.00 0.00 0.00 0.00 0.00 0.00 0.00 0.00 0.00 0.00 0.00 0.00 0.00 0.00 0.00 0.00 0.00 0.00 0.00 0.00
0.00 0.00 0.00 0.00 0.00 0.00 0.00 0.00 0.00 0.00 0.00 0.00 0.00 0.00 0.00 0.00 0.00 0.00 0.00 0.00 0.00 0.00 0.00 0.00 0.00 0.00 0.00 0.00 0.00 0.00 0.00 0.00 0.00 0.00 0.00 0.00 0.00 0.00 0.00 0.00 0.00 0.00 0.00
0.00 0.00 0.00 0.00 0.00 0.00 0.00 0.00 0.00 0.00 0.00 0.00 0.00 0.00 0.00 0.00 0.00 0.00 0.00 0.00 0.00 0.00 0.00 0.00 0.00 0.00 0.00 0.00 0.00 0.00 0.00 0.00 0.00 0.00 0.00 0.00 0.00 0.00 0.00 0.00 0.00 0.00 0.00
0.00 0.00 0.00 0.00 0.00 0.00 0.00 0.00 0.00 0.00 0.00 0.00 0.00 0.00 0.00 0.00 0.00 0.00 0.00 0.00 0.00 0.00 0.00 0.00 0.00 0.00 0.00 0.00 0.00 0.00 0.00 0.00 0.00 0.00 0.00 0.00 0.00 0.00 0.00 0.00 0.00 0.00 0.00
0.00 0.00 0.00 0.00 0.00 0.00 0.00 0.00 0.00 0.00 0.00 0.00 0.00 0.00 0.00 0.00 0.00 0.00 0.00 0.00 0.00 0.00 0.00 0.00 0.00 0.00 0.00 0.00 0.00 0.00 0.00 0.00 0.00 0.00 0.00 0.00 0.00 0.00 0.00 0.00 0.00 0.00 0.00
0.00 0.00 0.00 0.00 0.00 0.00 0.00 0.00 0.00 0.00 0.00 0.00 0.00 0.00 0.00 0.00 0.00 0.00 0.00 0.00 0.00 0.00 0.00 0.00 0.00 0.00 0.00 0.00 0.00 0.00 0.00 0.00 0.00 0.00 0.00 0.00 0.00 0.00 0.00 0.00 0.00 0.00 0.00
0.00 0.00 0.00 0.00 0.00 0.00 0.00 0.00 0.00 0.00 0.00 0.00 0.00 0.00 0.00 0.00 0.00 0.00 0.00 0.00 0.00 0.00 0.00 0.00 0.00 0.00 0.00 0.00 0.00 0.00 0.00 0.00 0.00 0.00 0.00 0.00 0.00 0.00 0.00 0.00 0.00 0.00 0.00
0.00 0.00 0.00 0.00 0.00 0.00 0.00 0.00 0.00 0.00 0.00 0.00 0.00 0.00 0.00 0.00 0.00 0.00 0.00 0.00 0.00 0.00 0.00 0.00 0.00 0.00 0.00 0.00 0.00 0.00 0.00 0.00 0.00 0.00 0.00 0.00 0.00 0.00 0.00 0.00 0.00 0.00 0.00
0.00 0.00 0.00 0.00 0.00 0.00 0.00 0.00 0.00 0.00 0.00 0.00 0.00 0.00 0.00 0.00 0.00 0.00 0.00 0.00 0.00 0.00 0.00 0.00 0.00 0.00 0.00 0.00 0.00 0.00 0.00 0.00 0.00 0.00 0.00 0.00 0.00 0.00 0.00 0.00 0.00 0.00 0.00
0.00 0.00 0.00 0.00 0.00 0.00 0.00 0.00 0.00 0.00 0.00 0.00 0.00 0.00 0.00 0.00 0.00 0.00 0.00 0.00 0.00 0.00 0.00 0.00 0.00 0.00 0.00 0.00 0.00 0.00 0.00 0.00 0.00 0.00 0.00 0.00 0.00 0.00 0.00 0.00 0.00 0.00 0.00
0.00 0.00 0.00 0.00 0.00 0.00 0.00 0.00 0.00 0.00 0.00 0.00 0.00 0.00 0.00 0.00 0.00 0.00 0.00 0.00 0.00 0.00 0.00 0.00 0.00 0.00 0.00 0.00 0.00 0.00 0.00 0.00 0.00 0.00 0.00 0.00 0.00 0.00 0.00 0.00 0.00 0.00 0.00
0.00 0.00 0.00 0.00 0.00 0.00 0.00 0.00 0.00 0.00 0.00 0.00 0.00 0.00 0.00 0.00 0.00 0.00 0.00 0.00 0.00 0.00 0.00 0.00 0.00 0.00 0.00 0.00 0.00 0.00 0.00 0.00 0.00 0.00 0.00 0.00 0.00 0.00 0.00 0.00 0.00 0.00 0.00
0.01 0.01 0.01 0.01 0.01 0.01 0.00 0.00 0.00 0.00 0.00 0.00 0.00 0.00 0.00 0.00 0.00 0.00 0.00 0.00 0.00 0.00 0.00 0.00 0.00 0.00 0.00 0.00 0.00 0.00 0.00 0.00 0.00 0.00 0.00 0.00 0.00 0.00 0.00 0.00 0.00 0.00 0.00
0.01 0.02 0.02 0.02 0.01 0.01 0.01 0.01 0.00 0.00 0.00 0.00 0.00 0.00 0.00 0.00 0.00 0.00 0.00 0.00 0.00 0.00 0.00 0.00 0.00 0.00 0.00 0.00 0.00 0.00 0.00 0.00 0.00 0.00 0.00 0.00 0.00 0.00 0.00 0.00 0.00 0.00 0.00
0.02 0.03 0.04 0.03 0.02 0.01 0.01 0.01 0.01 0.01 0.00 0.00 0.00 0.00 0.00 0.00 0.00 0.00 0.00 0.00 0.00 0.00 0.00 0.00 0.00 0.00 0.00 0.00 0.00 0.00 0.00 0.00 0.00 0.00 0.00 0.00 0.00 0.00 0.00 0.01 0.01 0.01 0.01
0.01 0.02 0.03 0.02 0.02 0.02 0.02 0.02 0.01 0.01 0.01 0.01 0.01 0.00 0.00 0.00 0.00 0.00 0.00 0.00 0.00 0.00 0.00 0.00 0.00 0.00 0.00 0.00 0.00 0.00 0.00 0.00 0.00 0.00 0.00 0.00 0.01 0.01 0.01 0.01 0.01 0.01 0.01
0.02 0.02 0.02 0.03 0.03 0.03 0.03 0.03 0.02 0.02 0.01 0.01 0.01 0.01 0.00 0.00 0.00 0.00 0.00 0.00 0.00 0.00 0.00 0.00 0.00 0.00 0.00 0.00 0.00 0.00 0.01 0.00 0.00 0.01 0.01 0.01 0.01 0.01 0.01 0.01 0.01 0.01 0.01
0.02 0.02 0.03 0.03 0.04 0.04 0.04 0.03 0.03 0.02 0.02 0.01 0.01 0.01 0.01 0.00 0.00 0.00 0.00 0.00 0.00 0.00 0.00 0.00 0.00 0.00 0.00 0.00 0.00 0.00 0.00 0.01 0.01 0.01 0.01 0.01 0.01 0.01 0.01 0.01 0.01 0.01 0.01
0.02 0.02 0.03 0.03 0.04 0.04 0.04 0.04 0.03 0.02 0.02 0.01 0.01 0.01 0.00 0.00 0.00 0.00 0.00 0.00 0.00 0.00 0.00 0.00 0.00 0.00 0.00 0.00 0.00 0.00 0.00 0.00 0.01 0.02 0.04 0.04 0.03 0.02 0.02 0.02 0.02 0.01 0.01
0.02 0.03 0.04 0.04 0.04 0.04 0.03 0.03 0.03 0.02 0.02 0.01 0.01 0.01 0.01 0.00 0.00 0.00 0.00 0.00 0.00 0.00 0.00 0.00 0.00 0.00 0.00 0.00 0.00 0.00 0.00 0.00 0.01 0.01 0.04 0.06 0.05 0.03 0.03 0.04 0.04 0.03 0.03
MSLP
1019.80 1019.81 1019.84 1019.88 1019.95 1020.03 1020.10 1020.17 1020.21 1020.22 1020.18 1020.10 1019.98 1019.81 1019.62 1019.42 1019.25 1019.11 1019.04 1019.03 1019.08 1019.18 1019.31 1019.43 1019.52 1019.57 1019.56 1019.50 1019.42 1019.32 1019.23 1019.16 1019.13 1019.12 1019.13 1019.13 1019.12 1019.08 1019.02 1018.93 1018.85 1018.81 1018.82
1019.98 1019.99 1020.02 1020.08 1020.17 1020.27 1020.38 1020.48 1020.57 1020.62 1020.63 1020.59 1020.50 1020.38 1020.23 1020.08 1019.96 1019.87 1019.83 1019.85 1019.93 1020.03 1020.15 1020.24 1020.30 1020.31 1020.26 1020.16 1020.04 1019.91 1019.80 1019.72 1019.67 1019.66 1019.66 1019.65 1019.62 1019.57 1019.48 1019.37 1019.26 1019.18 1019.15
1020.13 1020.16 1020.21 1020.28 1020.38 1020.50 1020.63 1020.76 1020.87 1020.95 1020.99 1020.99 1020.95 1020.87 1020.77 1020.68 1020.61 1020.57 1020.59 1020.65 1020.75 1020.87 1020.98 1021.06 1021.10 1021.08 1021.00 1020.88 1020.73 1020.58 1020.46 1020.37 1020.31 1020.29 1020.29 1020.28 1020.24 1020.18 1020.08 1019.96 1019.84 1019.73 1019.66
1020.24 1020.30 1020.38 1020.46 1020.58 1020.71 1020.85 1020.99 1021.12 1021.22 1021.29 1021.33 1021.33 1021.30 1021.25 1021.22 1021.20 1021.22 1021.29 1021.39 1021.52 1021.65 1021.76 1021.84 1021.86 1021.81 1021.71 1021.57 1021.40 1021.24 1021.11 1021.01 1020.96 1020.93 1020.93 1020.92 1020.90 1020.84 1020.75 1020.63 1020.50 1020.39 1020.30
1020.29 1020.39 1020.49 1020.60 1020.73 1020.87 1021.02 1021.18 1021.33 1021.46 1021.57 1021.64 1021.68 1021.70 1021.71 1021.72 1021.76 1021.82 1021.93 1022.06 1022.20 1022.34 1022.45 1022.51 1022.51 1022.45 1022.33 1022.17 1021.99 1021.82 1021.68 1021.58 1021.52 1021.50 1021.50 1021.50 1021.49 1021.45 1021.38 1021.28 1021.17 1021.06 1020.96
1020.26 1020.41 1020.54 1020.68 1020.83 1021.00 1021.18 1021.36 1021.54 1021.71 1021.85 1021.97 1022.05 1022.11 1022.17 1022.22 1022.29 1022.38 1022.50 1022.64 1022.78 1022.91 1023.01 1023.05 1023.03 1022.94 1022.80 1022.62 1022.43 1022.25 1022.10 1021.99 1021.94 1021.92 1021.93 1021.94 1021.95 1021.94 1021.90 1021.84 1021.75 1021.66 1021.57
1020.18 1020.37 1020.54 1020.71 1020.90 1021.10 1021.32 1021.54 1021.77 1021.99 1022.18 1022.34 1022.46 1022.56 1022.64 1022.72 1022.80 1022.89 1023.00 1023.12 1023.24 1023.34 1023.41 1023.42 1023.37 1023.26 1023.10 1022.91 1022.71 1022.52 1022.36 1022.25 1022.19 1022.17 1022.19 1022.22 1022.25 1022.27 1022.27 1022.24 1022.19 1022.13 1022.05
1020.06 1020.29 1020.50 1020.71 1020.94 1021.20 1021.47 1021.75 1022.04 1022.31 1022.55 1022.75 1022.91 1023.03 1023.11 1023.18 1023.25 1023.32 1023.39 1023.48 1023.55 1023.61 1023.63 1023.61 1023.54 1023.41 1023.24 1023.04 1022.83 1022.63 1022.48 1022.36 1022.30 1022.28 1022.30 1022.34 1022.39 1022.44 1022.47 1022.48 1022.46 1022.43 1022.38
1019.94 1020.20 1020.45 1020.71 1021.00 1021.31 1021.64 1021.99 1022.34 1022.66 1022.94 1023.17 1023.34 1023.46 1023.53 1023.57 1023.60 1023.62 1023.64 1023.67 1023.69 1023.71 1023.69 1023.64 1023.55 1023.41 1023.24 1023.04 1022.84 1022.65 1022.50 1022.38 1022.32 1022.30 1022.33 1022.37 1022.43 1022.49 1022.54 1022.58 1022.59 1022.59 1022.55
1019.84 1020.13 1020.42 1020.73 1021.07 1021.44 1021.84 1022.24 1022.64 1023.00 1023.30 1023.54 1023.70 1023.80 1023.83 1023.82 1023.79 1023.75 1023.72 1023.69 1023.66 1023.64 1023.60 1023.54 1023.44 1023.31 1023.16 1022.98 1022.80 1022.63 1022.49 1022.39 1022.33 1022.31 1022.33 1022.37 1022.43 1022.50 1022.55 1022.60 1022.62 1022.63 1022.60
1019.76 1020.07 1020.40 1020.76 1021.15 1021.58 1022.02 1022.47 1022.89 1023.27 1023.57 1023.79 1023.93 1023.97 1023.96 1023.89 1023.80 1023.70 1023.61 1023.54 1023.49 1023.44 1023.40 1023.35 1023.27 1023.18 1023.05 1022.92 1022.77 1022.64 1022.52 1022.43 1022.38 1022.36 1022.37 1022.41 1022.45 1022.50 1022.55 1022.58 1022.60 1022.59 1022.56
1019.66 1020.01 1020.38 1020.78 1021.22 1021.68 1022.16 1022.62 1023.05 1023.41 1023.69 1023.87 1023.95 1023.95 1023.87 1023.75 1023.61 1023.47 1023.35 1023.26 1023.20 1023.17 1023.15 1023.13 1023.10 1023.05 1022.98 1022.89 1022.79 1022.70 1022.61 1022.54 1022.50 1022.48 1022.48 1022.50 1022.52 1022.54 1022.56 1022.56 1022.55 1022.52 1022.46
1019.52 1019.90 1020.31 1020.75 1021.22 1021.71 1022.19 1022.65 1023.05 1023.38 1023.61 1023.74 1023.77 1023.71 1023.58 1023.42 1023.26 1023.10 1022.98 1022.90 1022.87 1022.87 1022.89 1022.93 1022.95 1022.96 1022.95 1022.92 1022.87 1022.82 1022.76 1022.71 1022.68 1022.65 1022.64 1022.63 1022.63 1022.61 1022.59 1022.55 1022.49 1022.41 1022.32
1019.27 1019.69 1020.14 1020.61 1021.10 1021.59 1022.07 1022.50 1022.86 1023.14 1023.31 1023.39 1023.36 1023.27 1023.12 1022.95 1022.78 1022.65 1022.56 1022.52 1022.54 1022.60 1022.68 1022.78 1022.86 1022.93 1022.97 1022.99 1022.98 1022.96 1022.93 1022.90 1022.86 1022.84 1022.81 1022.78 1022.74 1022.68 1022.61 1022.51 1022.40 1022.26 1022.11
1018.87 1019.33 1019.81 1020.31 1020.81 1021.29 1021.74 1022.13 1022.45 1022.67 1022.80 1022.84 1022.79 1022.68 1022.53 1022.38 1022.26 1022.17 1022.14 1022.18 1022.26 1022.38 1022.53 1022.68 1022.82 1022.93 1023.01 1023.06 1023.07 1023.07 1023.05 1023.02 1022.99 1022.96 1022.91 1022.86 1022.78 1022.69 1022.57 1022.42 1022.24 1022.05 1021.82
1018.32 1018.81 1019.31 1019.82 1020.32 1020.78 1021.20 1021.56 1021.83 1022.02 1022.12 1022.13 1022.08 1021.99 1021.89 1021.80 1021.74 1021.73 1021.78 1021.88 1022.04 1022.22 1022.42 1022.61 1022.77 1022.90 1023.00 1023.05 1023.08 1023.07 1023.05 1023.02 1022.99 1022.94 1022.88 1022.81 1022.71 1022.58 1022.42 1022.22 1021.99 1021.73 1021.44
1017.62 1018.13 1018.64 1019.15 1019.64 1020.08 1020.48 1020.81 1021.05 1021.22 1021.32 1021.34 1021.33 1021.29 1021.25 1021.23 1021.26 1021.34 1021.46 1021.64 1021.85 1022.08 1022.30 1022.50 1022.67 1022.80 1022.88 1022.92 1022.93 1022.92 1022.89 1022.85 1022.80 1022.75 1022.68 1022.59 1022.47 1022.32 1022.12 1021.88 1021.61 1021.30 1020.96
1016.85 1017.35 1017.85 1018.35 1018.82 1019.25 1019.62 1019.93 1020.18 1020.35 1020.46 1020.53 1020.57 1020.60 1020.64 1020.72 1020.83 1020.98 1021.18 1021.41 1021.66 1021.90 1022.13 1022.31 1022.46 1022.56 1022.61 1022.62 1022.60 1022.57 1022.52 1022.47 1022.41 1022.35 1022.28 1022.18 1022.05 1021.87 1021.66 1021.39 1021.08 1020.74 1020.35
1016.07 1016.54 1017.02 1017.49 1017.94 1018.35 1018.71 1019.02 1019.27 1019.46 1019.62 1019.74 1019.85 1019.96 1020.09 1020.24 1020.43 1020.65 1020.89 1021.15 1021.40 1021.63 1021.83 1021.99 1022.09 1022.14 1022.15 1022.13 1022.08 1022.02 1021.96 1021.90 1021.84 1021.77 1021.69 1021.59 1021.45 1021.26 1021.03 1020.75 1020.42 1020.04 1019.64
1015.35 1015.78 1016.21 1016.65 1017.07 1017.46 1017.82 1018.13 1018.40 1018.63 1018.83 1019.02 1019.19 1019.37 1019.57 1019.79 1020.03 1020.29 1020.55 1020.80 1021.04 1021.24 1021.39 1021.50 1021.55 1021.55 1021.52 1021.46 1021.39 1021.31 1021.24 1021.17 1021.10 1021.03 1020.95 1020.84 1020.69 1020.50 1020.25 1019.95 1019.61 1019.22 1018.80
1014.77 1015.13 1015.51 1015.90 1016.29 1016.66 1017.01 1017.33 1017.62 1017.89 1018.13 1018.37 1018.60 1018.84 1019.09 1019.34 1019.61 1019.87 1020.12 1020.35 1020.55 1020.70 1020.80 1020.85 1020.85 1020.81 1020.75 1020.66 1020.57 1020.48 1020.40 1020.33 1020.26 1020.18 1020.09 1019.96 1019.80 1019.59 1019.32 1019.01 1018.65 1018.25 1017.82
1014.34 1014.63 1014.95 1015.30 1015.65 1016.00 1016.33 1016.66 1016.96 1017.25 1017.53 1017.80 1018.07 1018.34 1018.61 1018.88 1019.14 1019.39 1019.61 1019.80 1019.94 1020.04 1020.09 1020.09 1020.05 1019.98 1019.88 1019.78 1019.68 1019.59 1019.50 1019.42 1019.34 1019.25 1019.13 1018.98 1018.78 1018.54 1018.25 1017.91 1017.52 1017.11 1016.67
1014.07 1014.30 1014.56 1014.86 1015.17 1015.49 1015.81 1016.12 1016.43 1016.73 1017.02 1017.30 1017.59 1017.86 1018.14 1018.39 1018.63 1018.85 1019.03 1019.17 1019.27 1019.31 1019.31 1019.27 1019.20 1019.10 1018.99 1018.88 1018.77 1018.66 1018.56 1018.46 1018.35 1018.23 1018.07 1017.88 1017.64 1017.35 1017.01 1016.63 1016.22 1015.78 1015.33
1013.94 1014.11 1014.32 1014.56 1014.83 1015.11 1015.41 1015.70 1015.99 1016.28 1016.57 1016.85 1017.13 1017.40 1017.65 1017.89 1018.10 1018.28 1018.42 1018.52 1018.57 1018.58 1018.54 1018.47 1018.37 1018.25 1018.12 1017.99 1017.86 1017.73 1017.60 1017.46 1017.31 1017.13 1016.92 1016.66 1016.35 1016.00 1015.61 1015.18 1014.73 1014.26 1013.78
1013.90 1014.01 1014.18 1014.37 1014.60 1014.84 1015.10 1015.36 1015.62 1015.89 1016.16 1016.43 1016.69 1016.94 1017.17 1017.38 1017.57 1017.72 1017.83 1017.90 1017.91 1017.89 1017.82 1017.72 1017.60 1017.45 1017.30 1017.13 1016.96 1016.79 1016.61 1016.41 1016.18 1015.93 1015.63 1015.30 1014.92 1014.49 1014.03 1013.55 1013.04 1012.53 1012.02
1013.90 1013.98 1014.10 1014.25 1014.42 1014.62 1014.83 1015.06 1015.29 1015.52 1015.76 1016.01 1016.25 1016.48 1016.70 1016.89 1017.06 1017.19 1017.28 1017.33 1017.32 1017.27 1017.18 1017.05 1016.90 1016.71 1016.51 1016.29 1016.06 1015.82 1015.55 1015.27 1014.95 1014.60 1014.22 1013.79 1013.33 1012.83 1012.30 1011.75 1011.20 1010.64 1010.09
Thickness
5565 5567 5568 5570 5572 5573 5574 5574 5575 5575 5576 5576 5575 5575 5574 5573 5572 5571 5570 5568 5565 5562 5559 5556 5552 5548 5544 5540 5536 5532 5528 5524 5522 5515 5505 5499 5495 5492 5488 5484 5481 5477 5475
5555 5556 5557 5558 5560 5561 5561 5562 5562 5563 5563 5563 5562 5562 5560 5559 5558 5557 5555 5553 5550 5547 5544 5541 5537 5534 5530 5526 5522 5518 5514 5510 5507 5503 5495 5489 5485 5482 5479 5475 5472 5469 5466
5545 5545 5546 5547 5548 5549 5549 5550 5550 5550 5550 5550 5550 5548 5547 5545 5544 5543 5541 5538 5536 5532 5529 5526 5522 5519 5515 5512 5508 5504 5500 5498 5494 5490 5485 5480 5476 5473 5470 5466 5463 5459 5457
5535 5535 5536 5537 5537 5538 5538 5538 5538 5538 5537 5537 5537 5536 5534 5532 5531 5529 5527 5525 5522 5518 5515 5512 5509 5506 5502 5499 5495 5492 5489 5486 5483 5480 5476 5471 5467 5464 5461 5457 5454 5450 5448
5525 5526 5526 5527 5527 5527 5527 5527 5526 5526 5525 5525 5525 5524 5523 5522 5519 5516 5515 5512 5509 5505 5502 5499 5496 5494 5492 5489 5485 5480 5478 5475 5472 5469 5465 5462 5458 5454 5450 5447 5444 5440 5438
5517 5517 5517 5517 5517 5518 5517 5516 5515 5514 5514 5513 5513 5512 5512 5510 5508 5505 5502 5499 5495 5492 5488 5485 5483 5481 5478 5477 5474 5471 5469 5465 5460 5457 5453 5450 5445 5442 5439 5437 5433 5430 5428
5509 5509 5508 5509 5509 5508 5507 5506 5505 5503 5502 5501 5500 5500 5499 5498 5497 5494 5491 5486 5483 5479 5476 5473 5472 5469 5466 5463 5461 5459 5456 5454 5452 5446 5442 5437 5434 5431 5428 5425 5421 5418 5415
5501 5501 5501 5501 5500 5499 5498 5496 5495 5493 5492 5490 5489 5488 5487 5487 5486 5483 5479 5475 5472 5469 5466 5463 5461 5458 5457 5454 5451 5447 5444 5442 5439 5436 5432 5428 5425 5422 5418 5414 5410 5406 5404
5495 5495 5494 5494 5492 5491 5489 5487 5486 5484 5482 5480 5479 5477 5476 5475 5476 5473 5470 5465 5462 5459 5457 5455 5452 5450 5450 5446 5442 5437 5434 5431 5429 5426 5423 5419 5416 5413 5409 5404 5399 5393 5390
5489 5488 5487 5486 5485 5484 5481 5479 5477 5475 5473 5472 5470 5468 5467 5466 5467 5465 5462 5458 5454 5451 5449 5446 5444 5443 5442 5439 5433 5429 5425 5422 5419 5415 5412 5408 5405 5402 5398 5394 5388 5380 5375
5484 5482 5481 5479 5478 5476 5473 5471 5469 5467 5465 5463 5462 5460 5459 5459 5458 5458 5455 5451 5447 5444 5441 5438 5435 5435 5433 5430 5426 5421 5418 5414 5409 5405 5401 5397 5394 5390 5386 5382 5377 5370 5363
5478 5476 5474 5473 5471 5469 5466 5464 5462 5460 5458 5456 5454 5453 5452 5451 5451 5450 5449 5446 5441 5437 5434 5430 5428 5427 5425 5421 5417 5414 5411 5405 5400 5395 5391 5387 5382 5377 5373 5369 5365 5360 5354
5473 5471 5469 5467 5465 5463 5460 5457 5455 5453 5451 5450 5448 5447 5446 5445 5443 5443 5441 5438 5435 5430 5426 5424 5422 5419 5415 5411 5408 5405 5400 5394 5390 5385 5380 5375 5370 5366 5362 5357 5353 5347 5342
5468 5466 5463 5461 5458 5456 5454 5453 5450 5448 5446 5446 5444 5442 5440 5438 5436 5435 5432 5429 5427 5424 5419 5416 5413 5409 5405 5402 5398 5393 5389 5384 5380 5375 5370 5365 5361 5355 5350 5345 5339 5334 5328
5464 5461 5459 5457 5454 5451 5450 5448 5447 5445 5443 5442 5440 5438 5435 5432 5432 5430 5426 5423 5419 5416 5413 5407 5403 5399 5395 5391 5387 5383 5379 5375 5369 5364 5359 5354 5349 5344 5338 5332 5326 5320 5314
5461 5458 5455 5453 5450 5447 5445 5443 5443 5442 5442 5440 5438 5434 5431 5429 5427 5425 5421 5418 5415 5411 5406 5399 5394 5389 5385 5381 5377 5373 5369 5364 5359 5354 5348 5342 5337 5331 5325 5319 5313 5308 5302
5461 5457 5453 5450 5447 5444 5441 5439 5437 5437 5436 5435 5433 5430 5427 5424 5421 5418 5414 5411 5407 5404 5397 5391 5385 5380 5376 5372 5367 5362 5358 5354 5349 5343 5337 5331 5324 5318 5312 5307 5301 5296 5291
5458 5456 5452 5448 5445 5442 5439 5436 5433 5430 5428 5426 5425 5424 5421 5418 5415 5411 5407 5403 5397 5393 5387 5382 5377 5373 5368 5364 5359 5354 5350 5345 5339 5334 5327 5321 5314 5307 5301 5296 5291 5285 5281
5455 5452 5449 5445 5441 5438 5435 5431 5428 5425 5422 5420 5417 5414 5414 5411 5408 5404 5400 5393 5388 5384 5380 5375 5371 5366 5361 5357 5352 5346 5341 5336 5330 5324 5318 5312 5305 5298 5292 5287 5282 5278 5275
5451 5449 5445 5441 5437 5433 5430 5426 5423 5420 5417 5414 5411 5408 5404 5401 5397 5394 5390 5386 5381 5377 5373 5368 5364 5360 5355 5350 5344 5339 5333 5328 5322 5316 5310 5304 5298 5291 5285 5280 5276 5271 5267
5446 5444 5441 5436 5432 5429 5426 5423 5420 5416 5412 5409 5406 5403 5399 5394 5390 5387 5383 5379 5375 5371 5367 5362 5358 5353 5348 5343 5337 5332 5326 5321 5315 5309 5303 5297 5290 5284 5279 5274 5270 5265 5261
5440 5437 5434 5431 5428 5424 5421 5418 5414 5411 5407 5403 5400 5396 5395 5390 5385 5381 5377 5374 5370 5366 5361 5356 5352 5347 5343 5337 5332 5326 5320 5314 5309 5303 5297 5291 5284 5279 5273 5268 5264 5259 5255
5432 5430 5427 5424 5421 5419 5416 5411 5408 5405 5401 5398 5394 5390 5387 5383 5379 5376 5372 5368 5364 5360 5355 5351 5346 5342 5337 5332 5327 5321 5315 5310 5305 5298 5292 5286 5280 5274 5269 5264 5259 5255 5251
5424 5422 5419 5417 5414 5411 5409 5406 5402 5399 5395 5392 5388 5384 5381 5377 5374 5371 5367 5362 5358 5354 5349 5345 5341 5336 5332 5326 5321 5316 5311 5305 5299 5293 5287 5281 5275 5270 5265 5261 5257 5253 5250
5415 5414 5411 5409 5406 5404 5401 5399 5395 5392 5389 5386 5382 5379 5376 5372 5368 5365 5361 5356 5352 5348 5344 5339 5335 5331 5326 5321 5316 5311 5306 5300 5294 5289 5284 5279 5274 5269 5264 5260 5258 5255 5251
5407 5406 5404 5401 5399 5397 5394 5392 5389 5385 5382 5379 5376 5373 5370 5366 5363 5359 5355 5351 5346 5342 5338 5334 5330 5325 5321 5316 5311 5306 5301 5296 5291 5286 5281 5278 5274 5271 5266 5263 5260 5257 5254